Burnet, TX

10:40 AM CST on November 18, 2017 (GMT -0600)
Burnet Municipal-Craddock

Weather History for KBMQ - November, 2014

Change the Weather History Date:

Sunday, November 9, 2014

  Actual Average Record
Temperature  
Mean Temperature 58 °F -  
Max Temperature 73 °F 65 °F 88 °F (2002)
Min Temperature 42 °F 48 °F 32 °F (2000)
Degree Days  
Heating Degree Days 8    
Growing Degree Days 8 (Base 50)    
Moisture  
Dew Point 40 °F    
Average Humidity 58    
Maximum Humidity 86    
Minimum Humidity 28    
Precipitation  
Precipitation 0.00 in - - ()
Sea Level Pressure  
Sea Level Pressure 30.07 in    
Wind  
Wind Speed 4 mph (SSW)    
Max Wind Speed 10 mph    
Max Gust Speed -    
Visibility 10 miles    
Events      
Averages and records for this station are not official NWS values.
T = Trace of Precipitation, MM = Missing Value Source: NWS Daily Summary

Daily Weather History Graph

Daily Weather History Graph

Search for Another Location

Airport or City:

Trip Planner

Search our weather history database for the weather conditions in past years. The results will help you decide how hot, cold, wet, or windy it might be!

Date:

Astronomy

Nov. 09, 2014 Rise Set
Actual Time 6:54 AM CST 5:38 PM CST
Civil Twilight 6:29 AM CST 6:04 PM CST
Nautical Twilight 6:00 AM CST 6:32 PM CST
Astronomical Twilight 5:31 AM CST 7:01 PM CST
Moon 8:16 PM CST (11/9) 9:24 AM CST (11/9)
Length of Visible Light 11h 35m
Length of Day
10h 44m
Waning Gibbous, 91% of the Moon is Illuminated
Nov 9
Waning Gibbous
Nov 14
Last Quarter
Nov 22
New
Nov 29
First Quarter
Dec 6
Full

Hourly Weather History & Observations

Time (CST) Temp. Windchill Dew Point Humidity Pressure Visibility Wind Dir Wind Speed Gust Speed Precip Events Conditions
12:53 AM 48.0 °F - 39.9 °F 74% 30.18 in 10.0 mi Calm Calm - N/A   Clear
1:53 AM 45.0 °F - 39.0 °F 80% 30.18 in 10.0 mi Calm Calm - N/A   Clear
2:53 AM 45.0 °F 43.5 °F 39.0 °F 80% 30.17 in 10.0 mi NNW 3.5 mph - N/A   Clear
3:53 AM 45.0 °F - 39.0 °F 80% 30.16 in 10.0 mi Calm Calm - N/A   Clear
4:53 AM 43.0 °F - 37.9 °F 82% 30.17 in 10.0 mi Calm Calm - N/A   Clear
5:53 AM 43.0 °F 40.3 °F 37.9 °F 82% 30.17 in 10.0 mi NNE 4.6 mph - N/A   Clear
6:53 AM 42.1 °F - 37.9 °F 85% 30.19 in 10.0 mi Calm Calm - N/A   Clear
7:53 AM 46.9 °F - 43.0 °F 86% 30.19 in 10.0 mi Calm Calm - N/A   Clear
8:53 AM 53.1 °F - 43.0 °F 69% 30.17 in 10.0 mi West 5.8 mph - N/A   Clear
9:53 AM 59.0 °F - 44.1 °F 58% 30.17 in 10.0 mi South 5.8 mph - N/A   Clear
10:53 AM 63.0 °F - 41.0 °F 45% 30.15 in 10.0 mi SSW 6.9 mph - N/A   Clear
11:53 AM 66.9 °F - 39.0 °F 36% 30.11 in 10.0 mi Variable 4.6 mph - N/A   Clear
12:53 PM 70.0 °F - 37.9 °F 31% 30.07 in 10.0 mi SSW 9.2 mph - N/A   Clear
1:53 PM 71.1 °F - 39.0 °F 31% 30.03 in 10.0 mi South 8.1 mph - N/A   Clear
2:53 PM 73.0 °F - 39.0 °F 29% 30.01 in 10.0 mi SSW 9.2 mph - N/A   Clear
3:53 PM 73.0 °F - 37.9 °F 28% 29.98 in 10.0 mi SSW 10.4 mph - N/A   Clear
4:53 PM 72.0 °F - 39.0 °F 30% 29.97 in 10.0 mi South 10.4 mph - N/A   Clear
5:53 PM 66.0 °F - 41.0 °F 40% 29.95 in 10.0 mi South 5.8 mph - N/A   Clear
6:53 PM 62.1 °F - 42.1 °F 48% 29.95 in 10.0 mi South 4.6 mph - N/A   Clear
7:53 PM 60.1 °F - 42.1 °F 51% 29.94 in 10.0 mi South 5.8 mph - N/A   Clear
8:53 PM 60.1 °F - 42.1 °F 51% 29.93 in 10.0 mi SSW 9.2 mph - N/A   Clear
9:53 PM 57.0 °F - 42.1 °F 57% 29.94 in 10.0 mi SSW 10.4 mph - N/A   Clear
10:53 PM 54.0 °F - 42.1 °F 64% 29.92 in 10.0 mi SSW 6.9 mph - N/A   Clear
11:53 PM 52.0 °F - 42.1 °F 69% 29.91 in 10.0 mi SW 6.9 mph - N/A   Clear